Regional Weather Roundup
Issued by NWS Northern Indiana

Home | Current Version | Previous Version | Text Only | Print | Product List | Glossary On
Versions: 1 2 3 4 5 6 7 8 9 10 11 12 13 14 15 16 17 18 19 20 21 22 23 24 25 26 27 28 29 30 31 32 33 34 35 36 37 38 39 40 41 42 43 44 45 46 47 48 49 50
000
ASUS43 KIWX 230610
RWRIWX

KIWX WEATHER ROUNDUP
NATIONAL WEATHER SERVICE NORTHERN INDIANA
200 AM EDT SAT AUG 23 2014

NOTE: "FAIR" INDICATES FEW OR NO CLOUDS BELOW 12,000 FEET WITH NO
SIGNIFICANT WEATHER AND/OR OBSTRUCTIONS TO VISIBILITY.

* THESE STATIONS ARE NOT UNDER NWS QUALITY CONTROL. THEY ALSO MAY NOT
  REPORT WEATHER SUCH AS PRECIPITATION OR FOG.

INZ001>027-230700-
NORTHERN INDIANA

CITY           SKY/WX    TMP DP  RH WIND       PRES   REMARKS
GARY*          FAIR      75  74  95 CALM      29.98S
VALPARAISO     FOG       70  68  93 CALM      29.99F VSB 3/4
6HR MIN TEMP:  71; 6HR MAX TEMP:  80;

MICHIGAN CITY* FOG       70  70 100 CALM      29.99S VSB 1/2
LAPORTE*       FAIR      69  69 100 CALM      30.00S
6HR MIN TEMP:  69; 6HR MAX TEMP:  80;

KNOX*          FAIR      69  67  93 CALM      29.98S
6HR MIN TEMP:  41; 6HR MAX TEMP:  86;

SOUTH BEND     FAIR      74  71  91 W3        29.99F FOG
6HR MIN TEMP:  74; 6HR MAX TEMP:  82; 6HR PCP: TRACE;

GOSHEN         CLOUDY    77  74  90 SE6       29.99F
6HR MIN TEMP:  76; 6HR MAX TEMP:  83; 6HR PCP:  0.02;

MONTICELLO*    FOG       70  70 100 CALM      29.98F VSB 1
6HR MIN TEMP:  70; 6HR MAX TEMP:  81;

LOGANSPORT*      N/A     68  68 100 CALM      29.99F FOG
ROCHESTER*     FAIR      73  73 100 CALM      30.00S
WARSAW*        CLOUDY    73  72  94 CALM      30.00F
ANGOLA*        PTCLDY    72  70  94 E3        30.00F
FORT WAYNE     CLOUDY    73  71  93 CALM      29.99F
6HR MIN TEMP:  72; 6HR MAX TEMP:  79; 6HR PCP:  0.49;

HUNTINGTON*    FAIR      72  72  99 CALM      29.99F
6HR MIN TEMP:  72; 6HR MAX TEMP:  79;

PERU/GRISSOM   FAIR      73  73 100 W2        29.99F
6HR MIN TEMP:  73; 6HR MAX TEMP:  80;

MARION*        FAIR      69  68  97 CALM      30.01S FOG
6HR MIN TEMP:  40; 6HR MAX TEMP:  87;


$$
INZ028>050-230700-
CENTRAL INDIANA

CITY           SKY/WX    TMP DP  RH WIND       PRES   REMARKS
LAFAYETTE      FAIR      71  70  96 CALM      29.98S FOG
6HR MIN TEMP:  70; 6HR MAX TEMP:  80; 6HR PCP: TRACE;

KOKOMO*        FAIR      73  70  88 W3        29.99F
6HR MIN TEMP:  72; 6HR MAX TEMP:  81;

MUNCIE*        FAIR      71  69  93 CALM      30.00F
6HR MIN TEMP:  71; 6HR MAX TEMP:  79;

INDIANAPOLIS   FAIR      73  70  90 CALM      29.99F
6HR MIN TEMP:  72; 6HR MAX TEMP:  81;


$$
MIZ043>046-050>051-056>058-064>065-071>073-077>080-230700-
SOUTHWEST LOWER MICHIGAN

CITY           SKY/WX    TMP DP  RH WIND       PRES   REMARKS
BATTLE CREEK   CLOUDY    73  69  87 E6        30.02F
6HR MIN TEMP:  73; 6HR MAX TEMP:  79;

BENTON HARBOR  FAIR      71  70  96 SE3       29.98S FOG
6HR MIN TEMP:  70; 6HR MAX TEMP:  76; 6HR PCP: TRACE;

COLDWATER*     FAIR      74  72  94 CALM      30.00F FOG
6HR MIN TEMP:  73; 6HR MAX TEMP:  79;

HILLSDALE*     MOCLDY    73  73 100 E6        30.03F FOG
HOLLAND        FAIR      72  69  90 E6        30.01F
6HR MIN TEMP:  72; 6HR MAX TEMP:  81;

GRAND RAPIDS   FAIR      70  69  97 E7        30.02F
6HR MIN TEMP:  70; 6HR MAX TEMP:  79;

KALAMAZOO      FAIR      73  70  90 CALM      30.01S FOG
6HR MIN TEMP:  70; 6HR MAX TEMP:  80;

STURGIS*         N/A     72  70  94 CALM      30.00F FOG
THREE RIVERS*  CLOUDY    73  72  95 CALM      30.00F FOG

$$
OHZ001>008-015>018-024>025-230700-
NORTHWEST OHIO

CITY           SKY/WX    TMP DP  RH WIND       PRES   REMARKS
WAUSEON*       FAIR      70  70 100 NE5       30.01F FOG
DEFIANCE       FAIR      73  70  90 E5        30.00F FOG
6HR MIN TEMP:  73; 6HR MAX TEMP:  81;

FINDLAY        FAIR      73  70  90 NE5       29.99F
6HR MIN TEMP:  73; 6HR MAX TEMP:  79;

TOLEDO EXPRESS MOCLDY    71  70  96 E3        30.00F FOG
6HR MIN TEMP:  71; 6HR MAX TEMP:  79;

TOLEDO METCALF MOCLDY    74  71  91 NE3       30.02F FOG
6HR MIN TEMP:  72; 6HR MAX TEMP:  79;

LIMA           FAIR      74  71  91 CALM      30.00F FOG
6HR MIN TEMP:  72; 6HR MAX TEMP:  79;


$$
&&


USA.gov is the U.S. government's official web portal to all federal, state and local government web resources and services.